{"data":{"norad_id":62322,"intl_designator":"2024-239X","name":"STARLINK-32654","alt_names":[],"object_type":"PAYLOAD","status":"ACTIVE","operator":null,"country":"US","launch_date":"2024-12-13","launch_site_code":"AFWTR","launch_vehicle":null,"mission":null,"orbit_class":"UNKNOWN","rcs_meters":null,"size_class":null,"mass_kg":null,"dimensions":null,"purposes":["comms"],"wikipedia_slug":null,"has_3d_model":false,"image_url":null,"decayed_at":null,"tle_current":{"epoch":"2026-05-25T03:43:36.064992Z","epoch_age_seconds":64929,"freshness":"FRESH","line1":"1 62322U 24239X   26145.15527853  .00025131  00000+0  77240-3 0  9993","line2":"2 62322  53.1604 198.5644 0001979  95.7397 264.3831 15.33569345 81098","mean_motion":15.33569345,"eccentricity":0.0001979,"inclination_deg":53.1604,"raan_deg":198.5644,"arg_perigee_deg":95.7397,"mean_anomaly_deg":264.3831,"bstar":0.0007724,"rev_number":8109,"period_min":93.898590545966,"perigee_km":463.81894514458,"apogee_km":466.52752733608,"semimajor_km":6843.3102362403,"source":"CELESTRAK","updated_at":"2026-05-25T13:38:19.651699Z"}}}